Printer-friendly version

IAU Minor Planet Center

Minor Planet Center

MPEC 2006-D58 : 2006 DV62

The following Minor Planet Electronic Circular may be linked-to from your own Web pages, but must not otherwise be redistributed electronically.


Read MPEC 2006-D57 Read MPEC 2006-D59


M.P.E.C. 2006-D58                                Issued 2006 Feb. 27, 20:06 UT

     The Minor Planet Electronic Circulars contain information on unusual
         minor planets and routine data on comets.  They are published
   on behalf of Commission 20 of the International Astronomical Union by the
          Minor Planet Center, Smithsonian Astrophysical Observatory,
                          Cambridge, MA 02138, U.S.A.

                  Supported in part by the Brinson Foundation
                  Supported in part by the TABASGO Foundation
             Prepared using the Tamkin Foundation Computer Network

                              MPC@CFA.HARVARD.EDU
          URL http://cfa-www.harvard.edu/iau/mpc.html  ISSN 1523-6714

                                   2006 DV62

Observations:
     K06D62V* C2006 02 25.43429 13 24 24.37 +16 00 57.3          20.1 V ED058G96
     K06D62V  C2006 02 25.43980 13 24 25.38 +16 01 27.0          19.6 V ED058G96
     K06D62V  C2006 02 25.44527 13 24 26.42 +16 01 55.2          20.0 V ED058G96
     K06D62V  C2006 02 25.45073 13 24 27.43 +16 02 24.0          19.9 V ED058G96
     K06D62V  C2006 02 25.45919 13 24 29.05 +16 03 08.4          19.8 V ED058G96
     K06D62V  C2006 02 25.46166 13 24 29.52 +16 03 21.0          19.6 V ED058G96
     K06D62V  C2006 02 25.53419 13 24 43.12 +16 09 39.6          20.3 V ED058G96
     K06D62V  C2006 02 25.53476 13 24 43.23 +16 09 42.2          20.3 V ED058G96
     K06D62V  C2006 02 25.53531 13 24 43.34 +16 09 45.0          20.1 V ED058G96
     K06D62V  C2006 02 25.53587 13 24 43.45 +16 09 48.3          20.0 V ED058G96
     K06D62V  C2006 02 26.34824 13 27 23.54 +17 20 57.7          20.7 V ED058G96
     K06D62V  C2006 02 26.34936 13 27 23.76 +17 21 04.1          20.5 V ED058G96
     K06D62V  C2006 02 26.35060 13 27 24.04 +17 21 10.0          21.0 V ED058G96
     K06D62V  C2006 02 26.35189 13 27 24.22 +17 21 17.1          19.9 V ED058G96
     K06D62V  C2006 02 27.38058 13 30 46.34 +18 52 03.8          20.4 R ED058854
     K06D62V  C2006 02 27.38538 13 30 47.30 +18 52 30.5          20.5 R ED058854
     K06D62V  C2006 02 27.39017 13 30 48.22 +18 52 54.2          20.5 R ED058854
     K06D62V  C2006 02 27.43236 13 30 56.12 +18 56 38.3          20.3 V ED058G96
     K06D62V  C2006 02 27.43289 13 30 56.23 +18 56 41.3          20.3 V ED058G96
     K06D62V  C2006 02 27.43728 13 30 57.06 +18 57 04.9          20.5 V ED058G96
     K06D62V  C2006 02 27.43784 13 30 57.16 +18 57 08.1          20.5 V ED058G96
     K06D62V  C2006 02 27.44222 13 30 57.99 +18 57 30.9          20.5 V ED058G96
     K06D62V  C2006 02 27.44277 13 30 58.10 +18 57 33.9          20.5 V ED058G96
     K06D62V  C2006 02 27.44590 13 30 58.75 +18 57 50.3          20.3 V ED058703
     K06D62V  C2006 02 27.44698 13 30 58.93 +18 57 56.3          20.4 V ED058G96
     K06D62V  C2006 02 27.44751 13 30 59.04 +18 57 59.0          20.1 V ED058G96
     K06D62V  C2006 02 27.45238 13 30 59.94 +18 58 24.9          20.4 V ED058G96
     K06D62V  C2006 02 27.45292 13 31 00.01 +18 58 28.1          20.6 V ED058G96
     K06D62V  C2006 02 27.45345 13 31 00.12 +18 58 30.7          20.5 V ED058G96
     K06D62V  C2006 02 27.45398 13 31 00.22 +18 58 33.3          20.3 V ED058G96
     K06D62V  C2006 02 27.45461 13 31 00.24 +18 58 38.7                 ED058703
     K06D62V  C2006 02 27.46333 13 31 02.09 +18 59 22.5                 ED058703
     K06D62V  C2006 02 27.47200 13 31 03.64 +19 00 10.0                 ED058703

Observer details:
703 Catalina Sky Survey.  Observer S. M. Larson.  Measurers E. C. Beshore,
    E. J. Christensen, G. J. Garradd, A. D. Grauer, R. E. Hill, R. A. Kowalski,
    S. M. Larson, R. H. McNaught.  0.68-m Schmidt + CCD.
854 Sabino Canyon Observatory, Tucson.  Observer J. E. McGaha.  0.36-m f/10.0
    Schmidt-Cassegrain + CCD.
G96 Mt. Lemmon Survey.  Observers E. J. Christensen, R. Hill.  Measurers
    E. C. Beshore, E. J. Christensen, G. J. Garradd, A. R. Gibbs, A. D. Grauer,
    R. E. Hill, R. A. Kowalski, S. M. Larson, R. H. McNaught.  1.5-m reflector
    + CCD.

Orbital elements:
2006 DV62
Epoch 2006 Mar. 6.0 TT = JDT 2453800.5                  MPC
M 355.45094              (2000.0)            P               Q
n   0.22401515     Peri.   35.30366     -0.93297967     +0.27445256
a   2.6850423      Node   156.92815     -0.23552130     -0.95474536
e   0.5153885      Incl.   36.45632     +0.27217394     +0.11461712
P   4.40           H   20.3           G   0.15           U   8
Residuals in seconds of arc
060225 G96  0.0   0.5-    060226 G96  0.1-  0.4+    060227 G96  0.2-  0.2-
060225 G96  0.3-  0.4+    060226 G96  0.5+  0.2-    060227 703  0.7+  0.4-
060225 G96  0.1-  0.0     060226 G96  0.4-  0.0     060227 G96  0.3+  0.2-
060225 G96  0.3-  0.2+    060227 854  0.3+  0.3+    060227 G96  0.4+  0.3-
060225 G96  0.3+  0.4+    060227 854  1.0+  1.5+    060227 G96  0.1+  0.2-
060225 G96  0.4+  0.1+    060227 854  1.2+  0.3-    060227 G96  0.4-  0.1+
060225 G96  0.0   0.0     060227 G96  0.3-  0.5-    060227 G96  0.2-  0.1-
060225 G96  0.0   0.4-    060227 G96  0.1-  0.3-    060227 G96  0.2-  0.3-
060225 G96  0.1+  0.4-    060227 G96  0.1-  0.0     060227 703  1.6-  1.7+
060225 G96  0.1+  0.0     060227 G96  0.2-  0.2+    060227 703  1.2+  0.8-
060226 G96  0.3-  0.1-    060227 G96  0.2-  0.3-    060227 703  0.2-  0.7+

Ephemeris:
2006 DV62                a,e,i = 2.69, 0.52, 36                  q = 1.3012
Date    TT    R. A. (2000) Decl.     Delta      r     Elong.  Phase     V
2006 02 24    13 19.77   +13 57.0    0.432    1.342   137.8    29.7    20.4
2006 03 06    13 52.89   +28 37.1    0.419    1.320   134.4    32.5    20.4
2006 03 16    14 26.77   +41 43.1    0.446    1.306   125.8    38.2    20.7
2006 03 26    14 58.65   +51 14.2    0.499    1.301   116.9    43.1    21.0
2006 04 05    15 25.37   +57 16.6    0.565    1.305   109.9    46.1    21.4
2006 04 15    15 44.96   +60 42.3    0.635    1.318   104.9    47.3    21.7
2006 04 25    15 57.05   +62 17.0    0.703    1.340   101.8    47.3    22.0

Kyle E. Smalley              (C) Copyright 2006 MPC           M.P.E.C. 2006-D58

Read MPEC 2006-D57 Read MPEC 2006-D59


Our Web policy. Index to the CBAT/MPC/ICQ pages.


Valid HTML 4.01!